Date String (YYYY-MM-DD hh:mm:ss) UTC,Instrument flags,Ambient pressure (hPa),Sample flow (lpm),Bypass flow (lpm),Sample temperature (°C),Ambient temperature (°C),ASC tube jacket temperature (°C),LED temperature (°C),Box temperature (°C),Sample RH (%),Span deviation,Mass concentration (μg/m³),Mass concentration (μg/m³),Mass concentration (μg/m³)
DateTimeUTC,F1_M11,P_M11,Q1_M11,Q2_M11,T1_M11,T2_M11,T3_M11,T4_M11,T5_M11,U1_M11,ZSPAN_M11,X0_M11,X2_M11,X1_M11
2022-12-05 07:00:00,,0817.1,5.01,0.00,23.8,22.3,00.0,32.9,25.6,15.1,0000.0,0007.19,0004.20,0004.07
2022-12-05 07:01:00,,0816.8,5.00,0.00,23.8,22.3,00.0,32.9,25.6,15.1,0000.0,0007.34,0004.25,0004.08
2022-12-05 07:02:00,,0816.9,4.98,0.00,23.8,22.2,00.0,32.9,25.6,15.0,0000.0,0007.35,0004.25,0004.08
2022-12-05 07:03:00,,0817.1,5.00,0.00,23.8,22.2,00.0,32.8,25.6,15.2,0000.0,0007.36,0004.24,0004.07
2022-12-05 07:04:00,,0816.9,5.01,0.00,23.8,22.2,00.0,32.8,25.5,15.2,0000.0,0007.36,0004.22,0004.06
2022-12-05 07:05:00,,0817.0,5.00,0.00,23.8,22.2,00.0,32.8,25.5,15.3,0000.0,0007.31,0004.20,0004.03
2022-12-05 07:06:00,,0816.9,5.00,0.00,23.8,22.2,00.0,32.8,25.5,15.4,0000.0,0007.18,0004.15,0003.98
2022-12-05 07:07:00,,0816.9,5.01,0.00,23.8,22.2,00.0,32.8,25.6,15.4,0000.0,0007.04,0004.08,0003.92
2022-12-05 07:08:00,,0816.9,5.00,0.00,23.8,22.3,00.0,32.8,25.5,15.4,0000.0,0005.56,0004.02,0003.86
2022-12-05 07:09:00,,0816.9,4.98,0.00,23.8,22.3,00.0,32.7,25.6,15.5,0000.0,0005.54,0003.94,0003.80
2022-12-05 07:10:00,,0816.7,5.01,0.00,23.8,22.3,00.0,32.7,25.6,15.5,0000.0,0005.94,0003.88,0003.74
2022-12-05 07:11:00,,0816.8,5.01,0.00,23.8,22.4,00.0,32.7,25.6,15.6,0000.0,0005.88,0003.83,0003.70
2022-12-05 07:12:00,,0816.8,5.00,0.00,23.8,22.4,00.0,32.7,25.6,15.7,0000.0,0005.84,0003.76,0003.64
2022-12-05 07:13:00,,0816.7,4.99,0.00,23.8,22.4,00.0,32.7,25.6,15.6,0000.0,0006.26,0003.71,0003.60
2022-12-05 07:14:00,,0816.6,5.00,0.00,23.8,22.3,00.0,32.7,25.6,15.6,0000.0,0006.75,0003.69,0003.58
2022-12-05 07:15:00,,0816.7,5.01,0.00,23.8,22.3,00.0,32.7,25.6,15.6,0000.0,0007.73,0003.67,0003.55
2022-12-05 07:16:00,,0817.0,5.01,0.00,23.8,22.3,00.0,32.7,25.6,15.6,0000.0,0007.81,0003.66,0003.53
2022-12-05 07:17:00,,0816.7,5.00,0.00,23.8,22.4,00.0,32.7,25.6,15.6,0000.0,0007.85,0003.68,0003.54
2022-12-05 07:18:00,,0816.5,4.98,0.00,23.8,22.4,00.0,32.7,25.6,15.7,0000.0,0007.86,0003.70,0003.55
2022-12-05 07:19:00,,0816.6,5.00,0.00,23.8,22.4,00.0,32.7,25.6,15.7,0000.0,0007.92,0003.72,0003.56
2022-12-05 07:20:00,,0816.5,5.01,0.00,23.8,22.3,00.0,32.7,25.6,15.6,0000.0,0007.93,0003.75,0003.56
2022-12-05 07:21:00,,0816.5,5.00,0.00,23.8,22.3,00.0,32.7,25.6,15.7,0000.0,0007.59,0003.76,0003.57
2022-12-05 07:22:00,,0816.4,4.99,0.00,23.8,22.2,00.0,32.7,25.6,15.8,0000.0,0007.78,0003.78,0003.59
2022-12-05 07:23:00,,0816.6,4.99,0.00,23.8,22.3,00.0,32.7,25.6,15.8,0000.0,0008.39,0003.79,0003.61
2022-12-05 07:24:00,,0816.8,5.01,0.00,23.7,22.3,00.0,32.7,25.6,15.9,0000.0,0008.36,0003.80,0003.63
2022-12-05 07:25:00,,0816.7,5.01,0.00,23.7,22.3,00.0,32.7,25.5,16.0,0000.0,0008.37,0003.83,0003.64
2022-12-05 07:26:00,,0816.8,5.01,0.00,23.7,22.3,00.0,32.7,25.6,15.9,0000.0,0007.65,0003.84,0003.66
2022-12-05 07:27:00,,0816.4,4.98,0.00,23.7,22.3,00.0,32.7,25.5,15.9,0000.0,0008.22,0003.85,0003.68
2022-12-05 07:28:00,,0816.3,5.02,0.00,23.7,22.3,00.0,32.7,25.5,15.4,0000.0,0008.20,0003.82,0003.66
2022-12-05 07:29:00,,0816.4,5.01,0.00,23.7,22.4,00.0,32.7,25.5,15.2,0000.0,0008.11,0003.74,0003.60
2022-12-05 07:30:00,,0816.4,4.98,0.00,23.7,22.4,00.0,32.7,25.6,15.2,0000.0,0008.02,0003.68,0003.56
2022-12-05 07:31:00,,0816.4,5.01,0.00,23.7,22.4,00.0,32.7,25.6,15.1,0000.0,0007.89,0003.61,0003.51
2022-12-05 07:32:00,,0816.6,5.00,0.00,23.7,22.4,00.0,32.7,25.6,15.2,0000.0,0007.90,0003.56,0003.46
2022-12-05 07:33:00,,0816.6,4.98,0.00,23.8,22.5,00.0,32.7,25.6,15.4,0000.0,0007.62,0003.51,0003.41
2022-12-05 07:34:00,,0816.8,5.00,0.00,23.8,22.5,00.0,32.7,25.6,15.3,0000.0,0006.64,0003.49,0003.40
2022-12-05 07:35:00,,0816.9,5.02,0.00,23.8,22.5,00.0,32.7,25.6,15.3,0000.0,0006.27,0003.46,0003.35
2022-12-05 07:36:00,,0816.7,4.98,0.00,23.8,22.5,00.0,32.7,25.7,15.4,0000.0,0005.51,0003.40,0003.30
2022-12-05 07:37:00,,0816.5,5.00,0.00,23.8,22.5,00.0,32.7,25.7,15.4,0000.0,0005.30,0003.35,0003.26
2022-12-05 07:38:00,,0816.4,5.01,0.00,23.8,22.5,00.0,32.7,25.6,15.5,0000.0,0004.26,0003.29,0003.20
2022-12-05 07:39:00,,0816.3,5.01,0.00,23.8,22.5,00.0,32.7,25.7,15.5,0000.0,0003.83,0003.24,0003.17
2022-12-05 07:40:00,,0816.4,4.99,0.00,23.8,22.6,00.0,32.7,25.7,15.6,0000.0,0003.87,0003.27,0003.20
2022-12-05 07:41:00,,0816.4,4.98,0.00,23.8,22.6,00.0,32.7,25.7,15.7,0000.0,0003.89,0003.29,0003.23
2022-12-05 07:42:00,,0816.4,5.02,0.00,23.8,22.6,00.0,32.7,25.7,15.8,0000.0,0003.94,0003.32,0003.25
2022-12-05 07:43:00,,0816.4,5.01,0.00,23.8,22.6,00.0,32.7,25.7,15.4,0000.0,0003.91,0003.34,0003.27
2022-12-05 07:44:00,,0816.5,4.98,0.00,23.8,22.6,00.0,32.7,25.7,14.9,0000.0,0003.83,0003.34,0003.27
2022-12-05 07:45:00,,0816.6,5.00,0.00,23.8,22.5,00.0,32.7,25.7,15.1,0000.0,0003.86,0003.34,0003.26
2022-12-05 07:46:00,,0816.3,5.01,0.00,23.8,22.5,00.0,32.7,25.7,15.5,0000.0,0004.88,0003.34,0003.26
2022-12-05 07:47:00,,0816.2,5.00,0.00,23.8,22.5,00.0,32.7,25.7,15.5,0000.0,0005.60,0003.35,0003.27
2022-12-05 07:48:00,,0816.7,4.98,0.00,23.9,22.6,00.0,32.7,25.7,15.2,0000.0,0005.61,0003.35,0003.27
2022-12-05 07:49:00,,0816.9,5.01,0.00,23.9,22.6,00.0,32.7,25.7,14.8,0000.0,0005.65,0003.35,0003.25
2022-12-05 07:50:00,,0816.6,5.00,0.00,23.9,22.6,00.0,32.8,25.7,15.1,0000.0,0005.78,0003.36,0003.25
2022-12-05 07:51:00,,0816.6,5.00,0.00,23.9,22.6,00.0,32.8,25.7,14.7,0000.0,0005.81,0003.36,0003.24
2022-12-05 07:52:00,,0816.6,4.98,0.00,23.9,22.6,00.0,32.8,25.7,14.5,0000.0,0005.80,0003.33,0003.20
2022-12-05 07:53:00,,0816.5,5.01,0.00,23.9,22.6,00.0,32.8,25.7,14.3,0000.0,0005.82,0003.31,0003.18
2022-12-05 07:54:00,,0816.5,5.00,0.00,23.9,22.5,00.0,32.8,25.7,14.2,0000.0,0005.77,0003.29,0003.17
2022-12-05 07:55:00,,0816.3,5.01,0.00,23.9,22.5,00.0,32.8,25.7,14.2,0000.0,0005.83,0003.28,0003.16
2022-12-05 07:56:00,,0816.3,5.00,0.00,23.8,22.5,00.0,32.8,25.7,14.3,0000.0,0005.80,0003.26,0003.14
2022-12-05 07:57:00,,0816.2,5.00,0.00,23.8,22.5,00.0,32.8,25.7,14.4,0000.0,0004.85,0003.24,0003.11
2022-12-05 07:58:00,,0816.4,5.00,0.00,23.8,22.4,00.0,32.8,25.7,14.6,0000.0,0004.08,0003.23,0003.08
2022-12-05 07:59:00,,0816.4,4.99,0.00,23.8,22.5,00.0,32.8,25.7,15.1,0000.0,0004.03,0003.22,0003.07
